Regional Weather Roundup
Issued by NWS

Home | Current Version | Previous Version | Graphics & Text | Print | Product List | Glossary On
Versions: 1 2 3 4 5 6 7 8 9 10 11 12 13 14 15 16 17 18 19 20 21 22 23 24 25 26 27 28 29 30 31 32 33 34 35 36 37 38 39 40 41 42 43 44 45 46 47 48 49 50
163
ASUS44 KJAN 310210
RWRMS

MISSISSIPPI HOURLY WEATHER ROUNDUP
NATIONAL WEATHER SERVICE JACKSON MS
900 PM CDT THU OCT 30 2014

NOTE: "FAIR: INDICATES FEW OR NO CLOUDS BELOW 12,000 FEET WITH NO
SIGNIFICANT WEATHER AND/OR OBSTRUCTIONS TO VISIBILITY.

MSZ001>002-007>008-010>013-018>021-025>028-034>036-310300-
NORTHWEST MISSISSIPPI

CITY           SKY/WX    TMP DP  RH WIND       PRES   REMARKS
CLARKSDALE     FAIR      59  57  94 CALM      30.05S
CLEVELAND      CLOUDY    62  51  66 CALM      30.05R
GREENWOOD      PTCLDY    53  50  89 CALM      30.05R
GREENVILLE     PTCLDY    58  50  75 W5        30.05R
GRENADA        MOCLDY    52  50  93 CALM      30.05R
OLIVE BRANCH   MOCLDY    55  46  71 CALM      30.03F
OXFORD         FAIR      54  48  82 CALM      30.05S
TUNICA         MOCLDY    59  52  77 CALM      30.04S
$$

MSZ003>006-009-014>017-022>024-029>033-037>039-310300-
NORTHEAST MISSISSIPPI

CITY           SKY/WX    TMP DP  RH WIND       PRES   REMARKS
COLUMBUS AFB   CLEAR     47  45  93 CALM      30.05S
CORINTH        MOCLDY    50  46  87 CALM      30.03S
GOLDN TRIANGLE CLEAR     50  43  76 CALM      30.04S
STARKVILLE     FAIR      46  45  93 CALM      30.05F
TUPELO         MOCLDY    53  48  83 CALM      30.04F
$$

MSZ040-058-310300-
CENTRAL MISSISSIPPI

CITY           SKY/WX    TMP DP  RH WIND       PRES   REMARKS
JACKSON INTL   CLEAR     51  45  79 CALM      30.06S
JACKSON HAWKNS CLEAR     54  45  71 CALM      30.06S
MERIDIAN KEY   CLEAR     48  43  82 CALM      30.06R
MERIDIAN NAS   MOCLDY    50  42  74 CALM      30.05R
RAYMOND        FAIR      48  45  87 CALM      30.06S
VICKSBURG      CLEAR     48  46  93 CALM      30.06F
$$

MSZ059>079-310300-
SOUTH MISSISSIPPI

CITY           SKY/WX    TMP DP  RH WIND       PRES   REMARKS
BROOKHAVEN     FAIR      52  45  76 CALM      30.08R
COLUMBIA         N/A     48  45  87 MISG      30.04R
HATTIESBURG    CLEAR     51  47  86 CALM      30.05R
MCCOMB         CLEAR     54  44  69 CALM      30.06R
NATCHEZ        CLEAR     54  48  82 CALM      30.08R
PINE BELT      CLEAR     50  43  76 CALM      30.05S
$$

MSZ080>082-310300-
COASTAL MISSISSIPPI

CITY           SKY/WX    TMP DP  RH WIND       PRES   REMARKS
BAY ST LOUIS   CLEAR     52  45  76 CALM      30.03F
BILOXI         CLEAR     62  44  51 N5        30.03S
PASCAGOULA     CLEAR     47  43  86 CALM      30.03R
GULFPORT       CLEAR     54  46  74 NW3       30.03R
$$



USA.gov is the U.S. government's official web portal to all federal, state and local government web resources and services.